Volver al catálogo

STARLINK-4464

ActivoComunicacionesPO
NORAD 53669·PAYLOAD·🇺🇸 United States

Lanzado Aug 31, 2022 desde Vandenberg Space Force Base

Loading…

Próximos Pases (próximas 24 horas)

TLE

ActualizadoSource: CelesTrak SupGP

Época: Sep 14, 2026, 21:13 UTC

1 53669C 22105X   26257.88451389  .00189440  00000+0  43269-3 0  2576
2 53669  97.5879 148.6565 0002368 146.1296  91.6498 15.97298819    16

Sigue STARLINK-4464 en tiempo real con AllMySat

Download on the App Store